Beaufort MCAS, SC

1:04 PM EDT on May 28, 2017 (GMT -0400)
Beaufort Marine Corps Air Station

Weather History for KNBC - November, 2012

Change the Weather History Date:

Wednesday, November 21, 2012

  Actual Average Record
Temperature  
Mean Temperature 54 °F -  
Max Temperature 66 °F 67 °F 84 °F (1942)
Min Temperature 42 °F 48 °F 23 °F (1937)
Degree Days  
Heating Degree Days 11    
Growing Degree Days 4 (Base 50)    
Moisture  
Dew Point 43 °F    
Average Humidity 84    
Maximum Humidity 100    
Minimum Humidity 36    
Precipitation  
Precipitation 0.00 in - - ()
Sea Level Pressure  
Sea Level Pressure 30.08 in    
Wind  
Wind Speed 2 mph (North)    
Max Wind Speed 15 mph    
Max Gust Speed 22 mph    
Visibility 5 miles    
Events Fog    
Averages and records for this station are not official NWS values.
T = Trace of Precipitation, MM = Missing Value Source: NWS Daily Summary

Daily Weather History Graph

Daily Weather History Graph

Search for Another Location

Airport or City:

Trip Planner

Search our weather history database for the weather conditions in past years. The results will help you decide how hot, cold, wet, or windy it might be!

Date:

Astronomy

Nov. 21, 2012 Rise Set
Actual Time 6:58 AM EST 5:19 PM EST
Civil Twilight 6:31 AM EST 5:45 PM EST
Nautical Twilight 6:01 AM EST 6:15 PM EST
Astronomical Twilight 5:32 AM EST 6:44 PM EST
Moon 1:16 PM EST (11/21) 12:36 AM EST (11/21)
Length of Visible Light 11h 13m
Length of Day
10h 20m
First Quarter, 61% of the Moon is Illuminated
Nov 21
First Quarter
Nov 28
Full
Dec 6
Last Quarter
Dec 13
New
Dec 20
First Quarter

Hourly Weather History & Observations

Time (EST) Temp. Windchill Dew Point Humidity Pressure Visibility Wind Dir Wind Speed Gust Speed Precip Events Conditions
12:04 AM 46.4 °F - 44.6 °F 93% 30.08 in 1.8 mi Calm Calm - N/A   Clear
12:14 AM 46.4 °F - 44.6 °F 93% 30.08 in 3.0 mi Calm Calm - N/A   Clear
12:56 AM 46.9 °F - 45.0 °F 93% 30.08 in 6.0 mi Calm Calm - N/A   Clear
1:40 AM 44.6 °F - 44.6 °F 100% 30.07 in 1.8 mi Calm Calm - N/A   Clear
1:45 AM 44.6 °F - 44.6 °F 100% 30.07 in 1.0 mi Calm Calm - N/A   Clear
1:50 AM 44.6 °F - 44.6 °F 100% 30.07 in 1.8 mi Calm Calm - N/A   Clear
1:53 AM 44.6 °F - 44.6 °F 100% 30.07 in 3.0 mi Calm Calm - N/A   Clear
1:56 AM 46.0 °F 44.8 °F 44.1 °F 93% 30.07 in 6.0 mi NNW 3.5 mph - N/A   Clear
2:56 AM 44.1 °F - 43.0 °F 96% 30.07 in 9.0 mi Calm Calm - 0.00 in   Clear
3:21 AM 44.6 °F - 42.8 °F 93% 30.07 in 1.5 mi Calm Calm - N/A   Clear
3:24 AM 44.6 °F 43.1 °F 42.8 °F 93% 30.07 in 0.8 mi North 3.5 mph - N/A   Clear
3:36 AM 42.8 °F 41.1 °F 42.8 °F 100% 30.07 in 1.2 mi NNW 3.5 mph - N/A   Clear
3:38 AM 42.8 °F 41.1 °F 42.8 °F 100% 30.07 in 2.0 mi North 3.5 mph - N/A   Clear
3:46 AM 42.8 °F - 42.8 °F 100% 30.07 in 3.0 mi Calm Calm - N/A   Clear
3:49 AM 42.8 °F 41.1 °F 42.8 °F 100% 30.07 in 1.5 mi North 3.5 mph - N/A   Clear
3:51 AM 42.8 °F - 41.0 °F 93% 30.07 in 0.8 mi Calm Calm - N/A   Clear
3:53 AM 42.8 °F - 41.0 °F 93% 30.06 in 0.5 mi Calm Calm - N/A Fog Fog
3:56 AM 44.1 °F - 42.1 °F 93% 30.06 in 0.2 mi Calm Calm - N/A Fog Fog
4:01 AM 44.6 °F - 44.6 °F 100% 30.06 in 0.5 mi Calm Calm - N/A Fog Fog
4:04 AM 44.6 °F - 44.6 °F 100% 30.06 in 0.8 mi Calm Calm - N/A   Mist
4:07 AM 44.6 °F - 44.6 °F 100% 30.06 in 1.2 mi Calm Calm - N/A   Partly Cloudy
4:09 AM 44.6 °F - 44.6 °F 100% 30.06 in 2.0 mi Calm Calm - N/A   Partly Cloudy
4:16 AM 44.6 °F - 44.6 °F 100% 30.06 in 1.5 mi Calm Calm - N/A   Partly Cloudy
4:24 AM 44.6 °F - 42.8 °F 93% 30.06 in 2.0 mi Calm Calm - N/A   Partly Cloudy
4:31 AM 44.6 °F - 42.8 °F 93% 30.06 in 7.0 mi Calm Calm - N/A   Clear
4:56 AM 43.0 °F - 42.1 °F 97% 30.07 in 9.0 mi Calm Calm - N/A   Clear
5:56 AM 44.1 °F 41.5 °F 43.0 °F 96% 30.08 in 8.0 mi North 4.6 mph - N/A   Clear
6:56 AM 45.0 °F 43.5 °F 44.1 °F 97% 30.10 in 5.0 mi North 3.5 mph - N/A Fog Shallow Fog
7:56 AM 46.0 °F 44.8 °F 44.1 °F 93% 30.12 in 5.0 mi North 3.5 mph - N/A Fog Shallow Fog
8:56 AM 51.1 °F - 46.9 °F 86% 30.12 in 6.0 mi NE 4.6 mph - N/A   Scattered Clouds
9:56 AM 57.0 °F - 46.9 °F 69% 30.14 in 10.0 mi NNE 9.2 mph - N/A   Scattered Clouds
10:56 AM 60.1 °F - 46.0 °F 60% 30.13 in 10.0 mi NNE 12.7 mph - N/A   Clear
11:56 AM 64.0 °F - 44.1 °F 48% 30.11 in 10.0 mi North 13.8 mph - N/A   Clear
12:56 PM 64.9 °F - 42.1 °F 43% 30.08 in 10.0 mi NNE 10.4 mph - N/A   Clear
1:56 PM 66.0 °F - 39.0 °F 37% 30.07 in 10.0 mi North 15.0 mph 21.9 mph N/A   Clear
2:56 PM 66.0 °F - 37.9 °F 36% 30.06 in 10.0 mi NNE 13.8 mph 20.7 mph N/A   Clear
3:56 PM 64.9 °F - 37.0 °F 36% 30.07 in 10.0 mi NNE 12.7 mph 19.6 mph N/A   Clear
4:56 PM 61.0 °F - 37.9 °F 42% 30.08 in 10.0 mi North 9.2 mph - N/A   Clear
5:56 PM 57.9 °F - 39.0 °F 49% 30.09 in 10.0 mi North 4.6 mph - N/A   Clear
6:56 PM 51.1 °F - 43.0 °F 74% 30.10 in 10.0 mi North 3.5 mph - N/A   Clear
7:56 PM 50.0 °F - 42.1 °F 74% 30.12 in 10.0 mi Calm Calm - N/A   Clear
8:56 PM 48.0 °F - 43.0 °F 83% 30.12 in 10.0 mi Calm Calm - N/A   Clear
9:56 PM 48.0 °F - 41.0 °F 77% 30.13 in 10.0 mi Calm Calm - N/A   Clear
10:56 PM 46.0 °F 44.8 °F 41.0 °F 83% 30.13 in 10.0 mi North 3.5 mph - N/A   Clear
11:56 PM 44.1 °F - 39.0 °F 82% 30.14 in 10.0 mi Calm Calm - N/A   Clear